Location: Dasselsbruch
(52.5680°N, 10.0042°E)
Time: 20:43:47
(UTC+00:00)

Daily predictions for brighter satellites

Satellite Brightness Start Highest point End
(mag) Time Altitude Azimuth Time Altitude Azimuth Time Altitude Azimuth
BREEZE-M DEB (TANK) 3.3 15:39:45 10° WSW 15:42:10 50° SSE 15:47:50 10° E
ARIANE 5 R/B 3.2 15:41:54 10° ESE 15:46:22 32° ENE 15:50:55 10° N
Cosmos 2084 Rocket 3.3 15:42:46 10° NW 15:47:00 73° NE 15:51:12 10° SE
Intercosmos 24 3.7 15:43:52 10° N 15:47:46 59° ENE 15:51:16 10° SSE
NOSS 3-2 (A) 3.4 15:43:24 10° SSW 15:48:24 62° SE 15:54:28 10° NE
Cosmos 1782 3.2 15:46:28 10° SSE 15:49:46 35° E 15:53:04 10° NNE
SL-08 ROCKET BODY 4.4 15:44:12 10° N 15:50:05 60° ENE 15:56:02 10° SSE
NOSS 3-2 (C) 4.1 15:46:01 10° S 15:50:23 29° ESE 15:55:25 10° ENE
Cosmos 1656 4.0 15:45:19 10° S 15:50:45 51° ESE 15:56:15 10° NE
Cosmos 1758 Rocket 3.6 15:46:40 10° N 15:50:57 58° ENE 15:55:10 10° SSE
Cosmos 2034 Rocket 4.4 15:45:06 10° SSW 15:51:25 71° WNW 15:57:49 10° N
Cosmos 2208 Rocket 4.0 15:47:44 10° NNW 15:52:56 88° ENE 15:58:08 10° SSE
Cosmos 2098 Rocket 3.7 15:51:11 10° SSE 15:55:13 40° E 15:59:53 10° NNE
NOSS 2-2 (E) 3.4 15:52:46 10° SSW 15:55:52 39° SE 15:58:41 10° ENE
Cosmos 724 4.4 15:50:24 10° NW 15:56:31 88° SW 16:02:27 10° SE
Meteor 1-20 Rocket 4.4 15:52:18 10° N 15:57:36 48° ENE 16:02:52 10° SE
CZ-4C R/B 2.9 15:52:40 10° NW 15:59:19 83° NE 16:07:45 10° SE
Cosmos 2266 Rocket 4.2 15:54:37 10° N 16:00:35 48° ENE 16:06:25 10° SE
Cosmos 405 Rocket 2.7 15:59:12 10° NNW 16:02:26 66° W 16:05:37 10° S
CBERS-1 4.0 16:00:25 10° SSE 16:05:32 83° ENE 16:10:41 10° NNW
SMAP 3.2 16:02:27 10° SE 16:06:57 52° ENE 16:11:30 10° N
Cosmos 2297 Rocket 2.4 16:02:51 10° NNW 16:08:34 82° WSW 16:14:14 10° SSE
Landsat 7 4.0 16:07:22 10° SE 16:11:48 45° ENE 16:16:15 10° N
[s.n.66845] 3.5 16:11:13 10° N 16:12:42 13° NE 16:12:44 13° NE
[s.n.66847] 3.5 16:11:40 10° N 16:13:10 14° NE 16:13:11 14° NE
Cosmos 1626 Rocket 3.7 16:08:55 10° NNW 16:13:16 76° W 16:17:32 10° S
[s.n.66846] 3.5 16:12:05 10° N 16:13:35 14° NE 16:13:36 14° NE
[s.n.66843] 3.5 16:12:36 10° N 16:14:08 14° NE 16:14:08 14° NE
Meteor 1-28 Rocket 3.0 16:10:51 10° NNE 16:14:10 52° E 16:17:26 10° S
[s.n.66844] 3.5 16:13:02 10° N 16:14:34 14° NE 16:14:34 14° NE
[s.n.66842] 3.5 16:13:33 10° N 16:15:06 14° NE 16:15:06 14° NE
[s.n.66841] 3.5 16:14:00 10° N 16:15:33 14° NE 16:15:33 14° NE
[s.n.66840] 3.5 16:14:29 10° N 16:16:03 14° NE 16:16:03 14° NE
[s.n.66838] 3.5 16:14:57 10° N 16:16:31 14° NE 16:16:31 14° NE
[s.n.66839] 3.5 16:15:27 10° N 16:17:01 15° NE 16:17:01 15° NE
NOSS 2-2 (C) 3.1 16:14:17 10° WSW 16:17:19 52° NW 16:19:48 14° NE
[s.n.66837] 3.5 16:15:53 10° N 16:17:27 15° NE 16:17:27 15° NE
[s.n.66836] 3.4 16:16:22 10° N 16:17:57 15° NE 16:17:57 15° NE
[s.n.66835] 3.4 16:16:53 10° N 16:18:27 15° NE 16:18:27 15° NE
[s.n.66834] 3.4 16:17:21 10° N 16:18:56 15° NE 16:18:56 15° NE
[s.n.66833] 3.4 16:17:47 10° N 16:19:22 15° NE 16:19:22 15° NE
[s.n.66832] 3.4 16:18:19 10° N 16:19:54 15° NE 16:19:54 15° NE
[s.n.66831] 3.4 16:18:44 10° N 16:20:19 15° NE 16:20:19 15° NE
[s.n.66830] 3.4 16:19:09 10° N 16:20:45 16° NE 16:20:45 16° NE
[s.n.66828] 3.4 16:19:34 10° N 16:21:10 16° NE 16:21:10 16° NE
[s.n.66829] 3.4 16:20:06 10° N 16:21:42 16° NE 16:21:42 16° NE
[s.n.66827] 3.4 16:20:37 10° N 16:22:13 16° NE 16:22:13 16° NE
[s.n.66826] 3.4 16:21:07 10° N 16:22:43 16° NE 16:22:43 16° NE
Cosmos 1315 Rocket 3.9 16:19:30 10° SW 16:23:08 41° WNW 16:26:49 10° N
[s.n.66825] 3.4 16:21:32 10° N 16:23:09 16° NE 16:23:09 16° NE
[s.n.66824] 3.3 16:22:03 10° N 16:23:40 16° NE 16:23:40 16° NE
Radarsat 4.5 16:19:18 10° SSE 16:24:26 68° ENE 16:29:36 10° NNW
[s.n.66823] 3.3 16:22:33 10° N 16:24:10 16° NE 16:24:10 16° NE
Cosmos 1606 Rocket 4.3 16:20:35 10° SSE 16:24:29 32° E 16:28:27 10° NNE
[s.n.66822] 3.3 16:23:02 10° N 16:24:39 17° NE 16:24:39 17° NE
ATLAS CENTAUR R/B 3.6 16:22:23 10° WNW 16:24:58 22° WSW 16:27:27 10° S
[s.n.66821] 3.3 16:23:30 10° N 16:25:07 17° NE 16:25:07 17° NE
Thor Agena Rocket 3.6 16:22:45 10° SSE 16:27:58 88° WSW 16:33:09 10° NNW
Cosmos 2219 3.8 16:23:04 10° NNW 16:28:22 37° NE 16:33:41 10° ESE
Cosmos 1503 Rocket 4.2 16:23:50 10° S 16:28:54 52° ESE 16:33:39 12° NE
CENTAUR R/B 3.1 16:24:19 10° WSW 16:30:17 54° NNW 16:36:56 13° NE
USA 290 3.6 16:29:15 10° NW 16:32:22 42° WSW 16:35:27 10° S
SL-16 R/B 2.6 16:26:14 10° NNE 16:32:30 87° WNW 16:38:43 10° SSW
Cosmos 1484 Rocket 3.8 16:29:18 10° S 16:32:40 44° W 16:36:03 10° NNW
GEOS 3 Rocket 4.0 16:28:50 15° NE 16:33:10 50° SE 16:38:23 10° SSW
Cosmos 1544 Rocket 3.7 16:29:14 10° SSW 16:33:38 79° W 16:38:07 10° N
AQUARIUS 4.2 16:30:38 10° SE 16:34:55 54° ENE 16:39:15 10° N
Cosmos 1844 Rocket 4.0 16:31:04 10° NNW 16:35:18 21° NNE 16:37:19 17° ENE
Lacrosse 5 rocket 1.6 16:31:56 10° W 16:35:34 47° NNW 16:37:41 21° NE
Cosmos 1980 Rocket 3.4 16:31:45 10° SSE 16:35:56 22° ESE 16:37:57 18° ENE
Meteor 1-25 Rocket 4.2 16:32:24 10° N 16:38:16 75° ENE 16:44:01 10° SSE
Meteor 1-5 Rocket 4.2 16:33:07 10° N 16:38:21 51° ENE 16:43:38 10° SSE
Cosmos 1354 Rocket 4.3 16:33:34 10° S 16:38:33 45° ESE 16:42:34 15° NE
Lacrosse 4 Rocket 3.1 16:37:19 10° W 16:40:36 23° NW 16:43:48 10° NNE
BREEZE M DEB (TANK) 3.7 16:39:00 10° SSW 16:40:37 17° SSE 16:41:17 15° SE
CORIOLIS 4.3 16:36:52 10° SSE 16:42:13 78° WSW 16:47:36 10° NNW
IRIDIUM 104 4.3 16:37:43 10° N 16:43:00 86° E 16:48:13 10° S
Cosmos 2263 Rocket 2.2 16:37:56 10° NNW 16:43:33 57° NE 16:49:09 10° SE
Cosmos 2228 4.4 16:40:40 10° SW 16:44:37 37° WNW 16:48:36 10° N
Cosmos 1777 Rocket 3.9 16:39:50 10° SSW 16:45:04 79° ESE 16:49:52 13° NNE
Spot 4 Rocket 4.5 16:41:14 10° SE 16:45:54 37° ENE 16:50:35 10° N
Cosmos 1726 Rocket 4.0 16:44:02 10° SSE 16:48:23 42° E 16:51:54 15° NNE
CZ-2D R/B 2.6 16:45:43 10° SSE 16:48:51 84° ENE 16:52:01 10° NNW
Okean 1-7 Rocket 3.6 16:45:53 10° NNW 16:50:19 84° W 16:54:40 10° S
USA 238 DEB 4.4 16:45:53 10° S 16:51:03 29° ESE 16:53:47 22° ENE
USA 238 4.4 16:46:01 10° S 16:51:10 29° ESE 16:53:52 22° ENE
Cosmos 44 Rocket 4.4 16:47:25 10° NW 16:51:48 28° NNE 16:53:32 23° NE
IRIDIUM 114 4.4 16:46:52 10° N 16:52:08 81° W 16:57:21 10° S
Cosmos 1602 Rocket 4.2 16:47:52 10° NNW 16:52:12 57° W 16:56:27 10° S
NOSS 3 (A) 4.0 16:50:07 10° NW 16:52:17 59° NE 16:52:32 54° ENE
ERS-1 4.4 16:49:27 10° SSE 16:54:27 85° ENE 16:59:27 10° NNW
Cosmos 1461 2.6 16:52:42 10° SW 16:56:36 78° SE 16:58:30 30° NE
USA 215 3.4 16:53:50 21° ENE 16:58:16 61° N 17:04:43 10° WNW
Cosmos 1933 3.1 16:54:36 10° S 16:58:25 71° E 17:01:21 16° NNE
Cosmos 1943 Rocket 4.3 16:57:29 10° NNW 16:59:06 11° N 17:00:43 10° NNE
Cosmos 2227 Rocket 2.4 16:54:21 10° NNW 17:00:00 76° WSW 17:05:37 10° SSE
SKYMED 2 4.2 16:58:49 28° ENE 17:00:03 34° E 17:04:00 10° SSE
IRS-1C 4.3 16:54:53 10° SSE 17:00:12 76° WSW 17:05:34 10° NNW
YAOGAN 1 2.9 16:56:57 10° SE 17:00:55 40° ENE 17:04:55 10° N
Cosmos-2242 4.2 16:57:41 10° SE 17:00:13 23° ESE 17:00:13 23° ESE
NOSS 2-3 (E) 3.9 16:59:51 10° S 17:03:09 33° SE 17:03:38 31° ESE
NOSS 2-3 (D) 4.0 17:00:33 10° S 17:03:51 31° ESE 17:04:14 30° ESE
Cosmos 1486 Rocket 4.4 16:59:43 10° SW 17:04:54 63° WNW 17:09:39 13° NNE
SJ-12 4.0 17:01:15 10° S 17:05:00 68° WSW 17:08:49 10° NNW
Cosmos 2369 Rocket 4.2 17:01:51 10° WNW 17:05:37 18° NNW 17:09:26 10° NNE
Cosmos 2151 4.3 17:02:20 10° NNW 17:06:16 41° W 17:10:11 10° SSW
Cosmos 1655 Rocket 3.9 17:05:56 10° N 17:12:13 81° ENE 17:18:26 10° SSE
Meteor 2-10 4.1 17:08:07 10° N 17:13:25 62° ENE 17:18:54 10° SSE
Cosmos 1697 Rocket 2.6 17:10:14 10° SSW 17:15:50 78° ESE 17:19:15 25° NE
Cosmos 1953 Rocket 3.4 17:11:37 10° N 17:16:06 80° E 17:20:32 10° SSE
Cosmos 990 Rocket 3.8 17:11:02 10° SSW 17:16:07 74° ESE 17:19:09 25° NNE
CZ-4 R/B 4.2 17:12:29 10° SSE 17:16:26 81° ENE 17:20:24 10° NNW
MOS 1 Rocket 3.7 17:12:52 10° S 17:17:49 71° WSW 17:23:04 10° NNW
Aureole 1 Rocket 3.8 17:14:14 10° S 17:18:32 41° ESE 17:19:37 36° ENE
Cosmos 2278 Rocket 4.2 17:16:40 10° NNW 17:18:47 12° N 17:19:59 11° NNE
NOSS 2-2 (D) 4.1 17:22:05 10° W 17:24:49 28° NNW 17:25:11 27° NNW
ARIANE 5 R/B 3.5 17:20:22 10° S 17:25:15 47° W 17:30:15 10° NNW
Cosmos 1825 Rocket 4.3 17:21:07 10° NNW 17:25:22 52° W 17:29:33 10° S
Resurs 01 Rocket 3.6 17:29:46 15° N 17:29:46 15° N 17:30:40 10° N
Cosmos 1680 Rocket 3.8 17:26:39 10° NNW 17:31:38 43° NE 17:31:45 43° ENE
NOAA 6 4.0 17:27:36 10° SSE 17:32:36 59° ENE 17:37:37 10° N
USA 81 3.9 17:27:49 10° N 17:33:07 81° E 17:38:23 10° S
CZ-2D R/B 3.4 17:32:15 10° SSE 17:36:27 83° WSW 17:40:36 10° NNW
Radarsat Rocket 4.5 17:30:03 10° SSE 17:38:07 82° ENE 17:45:16 10° NNW
IRAS Rocket 4.1 17:33:29 10° SSE 17:38:58 78° ENE 17:44:27 10° NNW
NOSS 3-2 (A) 4.1 17:34:14 10° W 17:39:27 45° NNW 17:42:25 27° NNE
Gbstr 26 Del rocket 3.1 17:36:01 10° SW 17:39:37 48° S 17:39:37 48° S
Cosmos 1844 4.3 17:35:02 10° NNW 17:39:50 37° NE 17:39:50 37° NE
Meteor 2-2 Rocket 4.2 17:34:55 10° S 17:40:24 56° E 17:41:51 43° NE
NOSS 3-2 (C) 3.4 17:35:21 10° WSW 17:40:36 69° NW 17:43:16 35° NE
SPOT 1/Viking Rocket 3.9 17:37:01 10° S 17:42:12 68° WSW 17:47:25 10° NNW
Cosmos 1076 Rocket 4.3 17:39:15 10° NNW 17:43:27 52° W 17:47:38 10° S
PSLV R/B 3.2 17:43:07 51° SSE 17:44:05 87° ENE 17:48:11 10° NNW
[s.n.66845] 4.4 17:43:14 10° NW 17:43:44 14° NW 17:43:44 14° NW
[s.n.66847] 4.4 17:43:41 10° NW 17:44:11 14° NW 17:44:11 14° NW
[s.n.66846] 4.4 17:44:07 10° NW 17:44:36 14° NW 17:44:36 14° NW
SJ-7 4.3 17:47:21 73° WNW 17:47:21 73° WNW 17:50:55 10° NNW
[s.n.66843] 4.5 17:44:40 10° NW 17:45:08 14° NW 17:45:08 14° NW
Cosmos 2082 3.6 17:41:34 10° NNW 17:47:20 86° ENE 17:50:42 26° SSE
COSMO-SKYMED 1 3.3 17:49:12 37° S 17:49:12 37° S 17:51:47 10° S
SL-19 R/B 4.2 17:42:19 10° SSE 17:47:45 90° WSW 17:53:32 10° NNW
[s.n.66844] 4.5 17:45:07 10° NW 17:45:35 14° NW 17:45:35 14° NW
[s.n.66842] 4.5 17:45:39 10° NW 17:46:06 14° NW 17:46:06 14° NW
Cosmos 2058 Rocket 2.9 17:46:19 10° S 17:50:44 80° ESE 17:50:44 80° ESE
Cosmos 2227 4.3 17:50:32 10° NNW 17:55:43 52° NE 17:55:43 52° NE
Meteor 2-11 Rocket 4.3 17:53:20 10° N 17:59:32 73° ENE 18:05:40 10° SSE
Nadezhda 2 Rocket 4.4 17:55:04 10° N 18:01:15 88° W 18:07:21 10° S
Meteor 1-26 Rocket 3.9 17:59:21 10° S 18:04:45 84° E 18:05:35 65° NNE
GEOS 3 Rocket 4.2 18:09:54 43° N 18:11:11 52° NW 18:16:23 10° WSW
Cosmos 1553 Rocket 3.8 18:05:54 10° S 18:12:05 82° E 18:14:51 36° NNE
Cosmos 2219 3.8 18:07:11 10° NW 18:12:47 56° WSW 18:17:57 12° S
Lacrosse 5 rocket 3.0 18:09:30 10° WNW 18:11:16 24° NW 18:11:16 24° NW
Cosmos 1980 Rocket 2.2 18:13:39 10° SW 18:19:19 79° WNW 18:19:44 74° N
Cosmos 1844 Rocket 3.1 18:14:37 10° NNW 18:18:59 51° N 18:18:59 51° N
USA 281 4.1 18:22:44 34° NNE 18:22:44 34° NNE 18:27:08 10° NNW
CENTAUR R/B 3.8 18:16:11 10° WNW 18:22:27 37° N 18:24:02 34° NNE
Cosmos 1745 Rocket 4.0 18:19:25 10° N 18:24:47 67° NNE 18:24:47 67° NNE
Cosmos 2263 Rocket 3.9 18:22:14 10° NW 18:27:11 32° WSW 18:32:08 10° SSW
Cosmos 1898 Rocket 4.0 18:26:12 10° SSW 18:30:11 54° SW 18:30:11 54° SW
Cosmos 2369 4.2 18:26:31 10° SSW 18:30:42 50° SSW 18:30:42 50° SSW
Cosmos 44 Rocket 4.4 18:28:48 10° NW 18:32:08 41° NW 18:32:08 41° NW
USA 215 3.1 18:41:10 79° N 18:41:10 79° N 18:47:38 10° WNW
USA 238 DEB 3.5 18:35:03 10° SW 18:41:14 80° NW 18:41:14 80° NW
USA 238 3.5 18:35:09 10° SW 18:41:19 80° NW 18:41:19 80° NW
Cosmos 1943 Rocket 4.4 18:41:32 10° NNW 18:42:28 13° N 18:42:28 13° N
Cosmos 1697 Rocket 4.2 18:55:34 10° W 19:00:23 28° NW 19:00:59 28° NNW
CENTAUR R/B 4.4 20:07:37 10° NW 20:11:08 29° NNW 20:11:08 29° NNW
